Home   Weather   Kitakyushu   Past weeks

Flag for Japan Past Weather in Kitakyushu, Japan — Yesterday and Last 2 Weeks

Now
72 °F

Light rain. Broken clouds.


Feels Like: 75 °F
Forecast: 69 / 77 °F
Wind: 5 mph from Northeast

Location: Kitakyushu Airport

Current Time: Sep 24, 2018 at 6:51:27 pm

Latest Report: Sep 24, 2018 at 6:00 pm


Visibility: N/A

Pressure: 29.98 "Hg

Humidity: 69%

Dew Point: 61 °F

Location of KitakyushuLocation

Past Weather in Kitakyushu — Graph

°F

Kitakyushu Temperature Yesterday

Maximum temperature yesterday: 77 °F (at 12:00 pm)
Minimum temperature yesterday: 72 °F (at 1:00 am)
Average temperature yesterday: 75 °F

High & Low Weather Summary for the Past Weeks

 TemperatureHumidityPressure
High86 °F (Sep 16, 1:00 pm)89% (Sep 12, 2:00 pm)30.09 "Hg (Sep 12, 2:00 pm)
Low70 °F (Sep 20, 3:00 am)51% (Sep 18, 3:00 pm)29.68 "Hg (Sep 20, 5:00 pm)
Average76 °F73%29.94 "Hg
* Reported Sep 9 5:00 pm — Sep 24 5:00 pm, Kitakyushu. Weather by CustomWeather, © 2018

Note: Actual official high and low records may vary slightly from our data, if they occured in-between our weather recording intervals... More about our weather records

Advertising

Kitakyushu Weather History for the Previous 24 Hours

Scroll right to see more
 ConditionsComfort  
Time TempWeatherWind HumidityBarometerVisibility
5:00 pm
Mon, Sep 24
72 °FLight rain. Broken clouds.7 mph65%29.98 "HgN/A
4:00 pm73 °FBroken clouds.6 mph57%29.98 "HgN/A
3:00 pm73 °FLight rain. Broken clouds.3 mph61%30.01 "HgN/A
2:00 pm73 °FLight rain. Broken clouds.8 mph57%29.98 "HgN/A
1:00 pm75 °FBroken clouds.7 mph57%30.01 "HgN/A
12:00 pm75 °FBroken clouds.10 mph54%30.01 "HgN/A
11:00 am75 °FBroken clouds.10 mph54%30.04 "HgN/A
10:00 am75 °FBroken clouds.9 mph57%30.04 "HgN/A
9:00 am73 °FPartly sunny.10 mph61%30.01 "HgN/A
8:00 am75 °FPartly sunny.14 mph61%30.01 "HgN/A
7:00 am72 °FBroken clouds.6 mph83%30.01 "HgN/A
6:00 am73 °FPassing clouds.1 mph78%29.98 "HgN/A
5:00 am73 °FPartly cloudy.5 mph74%29.98 "HgN/A
4:00 am73 °FPartly cloudy.6 mph74%29.98 "HgN/A
3:00 am72 °FPartly cloudy.5 mph78%29.98 "HgN/A
2:00 am73 °FPassing clouds.7 mph74%29.98 "HgN/A
1:00 am73 °FPassing clouds.9 mph78%29.98 "HgN/A
12:00 am75 °FPassing clouds.3 mph74%29.98 "HgN/A
11:00 pm
Sun, Sep 23
77 °FClear.5 mph65%29.98 "Hg10 mi
10:00 pm77 °FPassing clouds.6 mph65%29.98 "HgN/A
9:00 pm75 °FPassing clouds.3 mph65%29.98 "HgN/A
8:00 pm77 °FPassing clouds.5 mph65%29.98 "HgN/A
7:00 pm75 °FPassing clouds.8 mph69%29.98 "HgN/A
6:00 pm75 °FPartly sunny.5 mph69%29.98 "HgN/A
Weather by CustomWeather, © 2018

See weather overview